• Em Portugal
  • Lista de países
  • Para 7 dias
  • Temperatura da água
  • Mapas de satélite
  • Mapa do tempo
  • Widgets de tempo
  • user-avatar
    Iniciar Sessão

    Previsão horária em Santa Fé

    Hoje, 22 Abril, Domingo

    Tempo Temperatura Precipitação Vento Pressão Humidade
    00:00 +25°C° 0 mm 3 m/s 756 mmHg 77%
    01:00 +25°C° 0 mm 2 m/s 755 mmHg 79%
    02:00 +25°C° 0 mm 2 m/s 755 mmHg 81%
    03:00 +25°C° 0 mm 2 m/s 755 mmHg 83%
    04:00 +24°C° 0 mm 2 m/s 755 mmHg 84%
    05:00 +24°C° 0 mm 2 m/s 755 mmHg 85%
    06:00 +25°C° 0 mm 2 m/s 755 mmHg 81%
    07:00 +26°C° 0 mm 2 m/s 755 mmHg 77%
    08:00 +27°C° 0 mm 2 m/s 756 mmHg 74%
    09:00 +29°C° 0 mm 3 m/s 756 mmHg 66%
    10:00 +31°C° 0 mm 3 m/s 756 mmHg 59%
    11:00 +34°C° 0 mm 4 m/s 756 mmHg 51%
    12:00 +35°C° 0 mm 3 m/s 755 mmHg 51%
    13:00 +35°C° 0 mm 3 m/s 755 mmHg 50%
    14:00 +35°C° 0 mm 3 m/s 755 mmHg 50%
    15:00 +34°C° 0,1 mm 2 m/s 755 mmHg 53%
    16:00 +32°C° 0,1 mm 2 m/s 755 mmHg 56%
    17:00 +31°C° 0,1 mm 1 m/s 755 mmHg 60%
    18:00 +30°C° 0,4 mm 2 m/s 755 mmHg 65%
    19:00 +29°C° 0,4 mm 3 m/s 755 mmHg 69%
    20:00 +27°C° 0,4 mm 3 m/s 756 mmHg 74%
    21:00 +27°C° 0,6 mm 3 m/s 756 mmHg 77%
    22:00 +27°C° 0,6 mm 3 m/s 756 mmHg 80%
    23:00 +26°C° 0,6 mm 3 m/s 757 mmHg 82%

    Amanhã, 23 Abril, Segunda-feira

    Tempo Temperatura Precipitação Vento Pressão Humidade
    00:00 +26°C° 1,9 mm 3 m/s 757 mmHg 84%
    01:00 +26°C° 1,9 mm 3 m/s 757 mmHg 86%
    02:00 +25°C° 1,9 mm 3 m/s 757 mmHg 88%
    03:00 +25°C° 4,1 mm 3 m/s 757 mmHg 90%
    04:00 +25°C° 4,1 mm 3 m/s 757 mmHg 92%
    05:00 +23°C° 4,1 mm 4 m/s 757 mmHg 94%
    06:00 +24°C° 0,8 mm 3 m/s 758 mmHg 93%
    07:00 +25°C° 0,8 mm 3 m/s 758 mmHg 93%
    08:00 +25°C° 0,8 mm 3 m/s 759 mmHg 92%
    09:00 +27°C° 0,2 mm 3 m/s 759 mmHg 85%
    10:00 +28°C° 0,2 mm 3 m/s 759 mmHg 79%
    11:00 +30°C° 0,2 mm 3 m/s 759 mmHg 72%
    12:00 +31°C° 1,3 mm 3 m/s 759 mmHg 69%
    13:00 +31°C° 1,3 mm 3 m/s 758 mmHg 65%
    14:00 +33°C° 1,3 mm 3 m/s 757 mmHg 61%
    15:00 +31°C° 2 mm 3 m/s 758 mmHg 68%
    16:00 +30°C° 2 mm 2 m/s 758 mmHg 74%
    17:00 +28°C° 2 mm 2 m/s 758 mmHg 80%
    18:00 +28°C° 0 mm 2 m/s 758 mmHg 82%
    19:00 +27°C° 0 mm 3 m/s 758 mmHg 84%
    20:00 +26°C° 0 mm 3 m/s 758 mmHg 86%
    21:00 +26°C° 0,7 mm 3 m/s 759 mmHg 86%
    22:00 +26°C° 0,7 mm 3 m/s 759 mmHg 86%
    23:00 +26°C° 0,7 mm 4 m/s 759 mmHg 86%

    Depois de amanhã, 24 Abril, Terça-feira

    Tempo Temperatura Precipitação Vento Pressão Humidade
    00:00 +25°C° 0,9 mm 4 m/s 759 mmHg 88%
    01:00 +25°C° 0,9 mm 4 m/s 759 mmHg 89%
    02:00 +25°C° 0,9 mm 4 m/s 759 mmHg 91%
    03:00 +23°C° 5,3 mm 4 m/s 759 mmHg 92%
    04:00 +23°C° 5,3 mm 4 m/s 759 mmHg 94%
    05:00 +23°C° 5,3 mm 4 m/s 758 mmHg 96%
    06:00 +23°C° 0,5 mm 4 m/s 759 mmHg 94%
    07:00 +25°C° 0,5 mm 5 m/s 759 mmHg 92%
    08:00 +25°C° 0,5 mm 5 m/s 759 mmHg 91%
    09:00 +25°C° 0,2 mm 5 m/s 759 mmHg 88%
    10:00 +26°C° 0,2 mm 5 m/s 759 mmHg 86%
    11:00 +27°C° 0,2 mm 5 m/s 760 mmHg 83%
    12:00 +28°C° 0,2 mm 5 m/s 759 mmHg 78%
    13:00 +29°C° 0,2 mm 5 m/s 758 mmHg 74%
    14:00 +30°C° 0,2 mm 5 m/s 757 mmHg 69%
    15:00 +30°C° 0 mm 4 m/s 757 mmHg 70%
    16:00 +29°C° 0 mm 3 m/s 757 mmHg 70%
    17:00 +29°C° 0 mm 2 m/s 757 mmHg 71%
    18:00 +28°C° 0,5 mm 2 m/s 757 mmHg 74%
    19:00 +27°C° 0,5 mm 2 m/s 758 mmHg 78%
    20:00 +26°C° 0,5 mm 3 m/s 758 mmHg 81%
    21:00 +25°C° 1,7 mm 2 m/s 758 mmHg 83%
    22:00 +25°C° 1,7 mm 2 m/s 758 mmHg 85%
    23:00 +25°C° 1,7 mm 2 m/s 759 mmHg 87%

    25 Abril, Quarta-feira

    Tempo Temperatura Precipitação Vento Pressão Humidade
    00:00 +25°C° 1,2 mm 2 m/s 759 mmHg 87%
    01:00 +24°C° 1,2 mm 2 m/s 759 mmHg 88%
    02:00 +24°C° 1,2 mm 2 m/s 759 mmHg 88%
    03:00 +24°C° 2,1 mm 1 m/s 759 mmHg 89%
    04:00 +24°C° 2,1 mm 1 m/s 759 mmHg 90%
    05:00 +24°C° 2,1 mm 1 m/s 759 mmHg 90%
    06:00 +24°C° 0,9 mm 1 m/s 759 mmHg 90%
    07:00 +24°C° 0,9 mm 1 m/s 760 mmHg 90%
    08:00 +24°C° 0,9 mm 1 m/s 760 mmHg 90%
    09:00 +26°C° 0,1 mm 2 m/s 760 mmHg 84%
    10:00 +27°C° 0,1 mm 2 m/s 760 mmHg 79%
    11:00 +28°C° 0,1 mm 2 m/s 760 mmHg 73%
    12:00 +30°C° 0 mm 2 m/s 759 mmHg 69%
    13:00 +31°C° 0 mm 2 m/s 759 mmHg 64%
    14:00 +32°C° 0 mm 2 m/s 758 mmHg 59%
    15:00 +31°C° 0 mm 2 m/s 758 mmHg 62%
    16:00 +30°C° 0 mm 1 m/s 757 mmHg 66%
    17:00 +30°C° 0 mm 1 m/s 757 mmHg 69%
    18:00 +29°C° 0 mm 1 m/s 757 mmHg 71%
    19:00 +28°C° 0 mm 1 m/s 757 mmHg 73%
    20:00 +27°C° 0 mm 2 m/s 758 mmHg 75%
    21:00 +26°C° 0 mm 2 m/s 757 mmHg 76%
    22:00 +26°C° 0 mm 3 m/s 757 mmHg 77%
    23:00 +26°C° 0 mm 3 m/s 757 mmHg 78%

    26 Abril, Quinta-feira

    Tempo Temperatura Precipitação Vento Pressão Humidade
    00:00 +26°C° 0 mm 3 m/s 757 mmHg 77%
    01:00 +25°C° 0 mm 4 m/s 757 mmHg 77%
    02:00 +25°C° 0 mm 4 m/s 756 mmHg 76%
    03:00 +25°C° 0 mm 4 m/s 756 mmHg 75%
    04:00 +25°C° 0 mm 4 m/s 756 mmHg 73%
    05:00 +25°C° 0 mm 4 m/s 756 mmHg 71%
    06:00 +25°C° 0 mm 5 m/s 756 mmHg 71%
    07:00 +25°C° 0 mm 5 m/s 756 mmHg 71%
    08:00 +25°C° 0 mm 5 m/s 756 mmHg 70%
    09:00 +27°C° 0 mm 6 m/s 756 mmHg 65%
    10:00 +29°C° 0 mm 6 m/s 755 mmHg 61%
    11:00 +32°C° 0 mm 7 m/s 755 mmHg 56%
    12:00 +32°C° 0 mm 7 m/s 754 mmHg 54%
    13:00 +33°C° 0 mm 6 m/s 753 mmHg 52%
    14:00 +34°C° 0 mm 6 m/s 752 mmHg 50%
    15:00 +33°C° 0 mm 5 m/s 752 mmHg 54%
    16:00 +32°C° 0 mm 4 m/s 751 mmHg 58%
    17:00 +30°C° 0 mm 4 m/s 751 mmHg 62%
    18:00 +30°C° 0 mm 4 m/s 751 mmHg 61%
    19:00 +29°C° 0 mm 4 m/s 751 mmHg 61%
    20:00 +28°C° 0 mm 5 m/s 751 mmHg 60%
    21:00 +28°C° 0 mm 5 m/s 751 mmHg 60%
    22:00 +28°C° 0 mm 5 m/s 752 mmHg 60%
    23:00 +28°C° 0 mm 5 m/s 752 mmHg 59%

    27 Abril, Sexta-feira

    Tempo Temperatura Precipitação Vento Pressão Humidade
    00:00 +28°C° 0 mm 5 m/s 752 mmHg 60%
    01:00 +28°C° 0 mm 4 m/s 752 mmHg 61%
    02:00 +27°C° 0 mm 4 m/s 752 mmHg 62%
    03:00 +26°C° 0,7 mm 4 m/s 752 mmHg 66%
    04:00 +26°C° 0,7 mm 4 m/s 752 mmHg 71%
    05:00 +25°C° 0,7 mm 4 m/s 752 mmHg 75%
    06:00 +25°C° 1,4 mm 4 m/s 753 mmHg 78%
    07:00 +25°C° 1,4 mm 3 m/s 755 mmHg 81%
    08:00 +24°C° 1,4 mm 3 m/s 756 mmHg 84%
    09:00 +24°C° 2,6 mm 3 m/s 756 mmHg 86%
    10:00 +24°C° 2,6 mm 2 m/s 757 mmHg 88%
    11:00 +24°C° 2,6 mm 1 m/s 758 mmHg 90%
    12:00 +24°C° 3,4 mm 2 m/s 758 mmHg 91%
    13:00 +22°C° 3,4 mm 3 m/s 758 mmHg 92%
    14:00 +21°C° 3,4 mm 4 m/s 758 mmHg 93%
    15:00 +20°C° 0,3 mm 4 m/s 758 mmHg 91%
    16:00 +20°C° 0,3 mm 4 m/s 758 mmHg 90%
    17:00 +19°C° 0,3 mm 5 m/s 758 mmHg 88%
    18:00 +19°C° 0,3 mm 4 m/s 759 mmHg 88%
    19:00 +18°C° 0,3 mm 4 m/s 759 mmHg 88%
    20:00 +18°C° 0,3 mm 4 m/s 760 mmHg 88%
    21:00 +18°C° 0,1 mm 4 m/s 760 mmHg 88%
    22:00 +18°C° 0,1 mm 4 m/s 760 mmHg 88%
    23:00 +18°C° 0,1 mm 4 m/s 760 mmHg 88%
    Mostrar mais